East Milton, MA

10:56 AM EST on November 22, 2017 (GMT -0500)
East Milton

Weather History for KMQE - April, 2013

Change the Weather History Date:

Monday, April 22, 2013

  Actual Average (KOWD) Record (KOWD)
Temperature  
Mean Temperature 42 °F -  
Max Temperature 50 °F 59 °F 87 °F (2001)
Min Temperature 36 °F 36 °F 27 °F (2006)
Degree Days  
Heating Degree Days 23    
Moisture  
Dew Point 28 °F    
Average Humidity 61    
Maximum Humidity 76    
Minimum Humidity 34    
Precipitation  
Precipitation 0.00 in - - ()
Sea Level Pressure  
Sea Level Pressure 30.69 in    
Wind  
Wind Speed 10 mph (ENE)    
Max Wind Speed 20 mph    
Max Gust Speed 32 mph    
Averages and records for this station are not official NWS values.
T = Trace of Precipitation, MM = Missing Value Source: NWS Daily Summary

Daily Weather History Graph

Daily Weather History Graph

Search for Another Location

Airport or City:

Trip Planner

Search our weather history database for the weather conditions in past years. The results will help you decide how hot, cold, wet, or windy it might be!

Date:

Astronomy

Apr. 22, 2013 Rise Set
Actual Time 5:52 AM EDT 7:33 PM EDT
Civil Twilight 5:22 AM EDT 8:03 PM EDT
Nautical Twilight 4:46 AM EDT 8:39 PM EDT
Astronomical Twilight 4:08 AM EDT 9:18 PM EDT
Moon 4:16 PM EDT 3:49 AM EDT
Length of Visible Light 14h 40m
Length of Day
13h 41m
Waxing Gibbous, 87% of the Moon is Illuminated
Apr 22
Waxing Gibbous
Apr 25
Full
May 2
Last Quarter
May 9
New
May 18
First Quarter

Hourly Weather History & Observations

Time (EDT) Temp. Windchill Dew Point Humidity Pressure Visibility Wind Dir Wind Speed Gust Speed Precip Events Conditions
12:54 AM 39.0 °F 35.7 °F 27.0 °F 62% 30.69 in - WSW 4.6 mph - N/A   Unknown
1:54 AM 37.0 °F 33.3 °F 28.0 °F 70% 30.69 in - NW 4.6 mph - N/A   Unknown
2:54 AM 37.0 °F 31.0 °F 27.0 °F 67% 30.69 in - North 8.1 mph - N/A   Unknown
3:54 AM 37.0 °F 31.0 °F 27.0 °F 67% 30.70 in - NNE 8.1 mph - N/A   Unknown
4:54 AM 37.0 °F 29.8 °F 27.0 °F 67% 30.71 in - NE 10.4 mph - N/A   Unknown
5:54 AM 36.0 °F 28.0 °F 28.9 °F 76% 30.71 in - NNE 11.5 mph - N/A   Unknown
6:54 AM 37.0 °F 29.8 °F 28.9 °F 73% 30.73 in - NE 10.4 mph - N/A   Unknown
7:54 AM 42.1 °F 36.6 °F 30.0 °F 62% 30.73 in - ENE 9.2 mph - N/A   Unknown
8:54 AM 45.0 °F 38.5 °F 28.0 °F 52% 30.73 in - East 13.8 mph 20.7 mph N/A   Unknown
9:54 AM 46.9 °F - 23.0 °F 39% 30.75 in - East 19.6 mph 32.2 mph N/A   Unknown
10:54 AM 48.9 °F - 23.0 °F 36% 30.75 in - East 15.0 mph 21.9 mph N/A   Unknown
11:54 AM 48.0 °F - 21.0 °F 34% 30.74 in - East 17.3 mph 31.1 mph N/A   Unknown
1:54 PM 48.0 °F - 23.0 °F 37% 30.71 in - ENE 13.8 mph 21.9 mph N/A   Unknown
2:54 PM 46.9 °F - 28.9 °F 50% 30.68 in - ENE 17.3 mph 27.6 mph N/A   Unknown
3:54 PM 44.1 °F 37.7 °F 33.1 °F 65% 30.69 in - ENE 12.7 mph 26.5 mph N/A   Unknown
4:54 PM 43.0 °F 34.8 °F 33.1 °F 68% 30.67 in - ENE 18.4 mph 27.6 mph N/A   Unknown
5:54 PM 43.0 °F 36.4 °F 32.0 °F 65% 30.67 in - East 12.7 mph 20.7 mph N/A   Unknown
6:54 PM 42.1 °F 35.2 °F 30.9 °F 65% 30.66 in - East 12.7 mph 19.6 mph N/A   Unknown
7:54 PM 39.0 °F 31.4 °F 28.9 °F 67% 30.66 in - East 12.7 mph 21.9 mph N/A   Unknown
8:54 PM 37.9 °F 29.6 °F 28.9 °F 70% 30.65 in - East 13.8 mph - N/A   Unknown
9:54 PM 37.9 °F 30.9 °F 28.0 °F 68% 30.64 in - East 10.4 mph 18.4 mph N/A   Unknown
10:54 PM 37.9 °F 29.2 °F 28.0 °F 68% 30.61 in - East 15.0 mph 24.2 mph N/A   Unknown
11:54 PM 37.0 °F 28.9 °F 28.9 °F 73% 30.60 in - East 12.7 mph 20.7 mph N/A   Unknown